Flight Information

DEPARTURE
SAN FRANCISCO, CA
Elevation:
13
Runways:
1R/19L - 8650x200 - ASPH-G
10L/28R - 11870x200 - ASPH-G
1L/19R - 7650x200 - ASPH-G
10R/28L - 11381x200 - ASPH-G
Active PE Departure:
1R - 1L
Current PE ATIS:
X
Altimeter:
29.99
Remarks:
V F R DEPARTURES CONTACT CLEARANCE DELIVERY, ADVISE ON COURSE HEADING, ALTITUDE, AND IF FLIGHT FOLLOWING IS REQUESTED.
ATIS:
118.85 650-877-3585
Clearance Delivery:
118.2
Ground:
121.8
Tower:
120.5
DESTINATION
,
Elevation:
TPA:
1000 (est.)


6905.5 NM69° True-15° Var53° HDG

Flight Plan:
(click to file on line)

1. Type
2. Aircraft Identification
3. Aircraft Type / Special Equipment
4. True Airspeed
kts
5. Departure Airport
(ICAO code)
6. Arriving Airport
(ICAO code)
7. Cruising Altitude
ft
8. Alternate Airport
(ICAO code)
9. Route of Flight
10. Remarks


00:00:00 Departure ATIS: Destination ATIS:

Clearance Limit:
Route:
Altitude: Expect in minutes
Frequency:
Transponder: (7500 Hijack / 7600 Lost Comms / 7700 Emergency)


KSFO 010456Z 28005KT 10SM CLR 19/11 A3000 RMK AO2 SLP160 T01940111
Time: 2020-10-01T04:56:00Z
1601529288
Winds: 280 @ 5 kts
Visibility: 10.0 sm
Clouds (AGL): CLR
Temperature: 19.4 C
Dew Point: 11.1 C
Pressure: 30.0 in Hgbr


Notes:

Data extracted from FAA Digital Chart Supplement. Effective: 0901Z Thursday, Sep 10, 2020 to 0901Z Thursday, Nov 5, 2020
Current ATIS data is provided courtisy of PilotEdge.